Чиндат

Россия / Красноярский край     57°22′43″N   89°17′59″E
темп.,
°C
ветер,
м/с
пор.,
м/с
влажн.,
%
обл.,
%
осадки,
мм/ч
давл.,
гПа
погр.,
м
9 мая, вс
вс901:00+1зсз28955 0.1 1014253
04:000зсз27965 0.0 1015194
07:00+2сз378732 0.0 1016295
10:00+7ссз356685 0.1 10171267
13:00+8ссз4662100 0.6 10181406
16:00+5ссз479099 0.6 1020644
19:00+7с367563 0.6 1021900
22:00+4сз249377 0.0 102287
10 мая, пн
пн1001:00+3ссз39935 0.0 1022246
04:00+1ссз269714 0.0 1023132
07:00+4с249132 0.0 1024201
10:00+9ссв246412 0.0 1024903
13:00+13всв244989 0.0 10231674
16:00+12ссв2359100 0.0 1023904
19:00+12с24575 0.0 1023890
22:00+7с22825 0.0 102336
11 мая, вт
вт1101:00+6ссв28885 0.0 1022152
04:00+4ссв3109464 0.0 1022231
07:00+5ссв3108499 0.0 1022362
10:00+9ссв476085 0.0 1021652
13:00+13с4445100 0.0 10201622
16:00+13с334596 0.0 10191677
19:00+11с4657100 0.0 1020908
22:00+8с3106698 0.0 1020373
12 мая, ср
ср1201:00+7ссв397668 0.0 1020306
04:00+7св3883100 0.0 1020373
07:00+6св3787100 0.0 1021442
10:00+10св356135 0.0 1022900
13:00+13св343974 0.0 10212130
16:00+14св343422 0.0 10202247
19:00+13в33422 0.0 10211570
22:00+6ююв23695 0.0 102354
13 мая, чт
чт1301:00+5ююз11730 0.0 102310
04:00+3юз11760 0.0 102310
07:00+7юз12640 0.0 1023110
10:00+13юз22420 0.0 10221090
13:00+15юз23320 0.0 10201840
16:00+17зюз352825 0.0 10172003
19:00+15зюз373899 0.0 1015691
22:00+10юз31152100 0.0 1014253